DL2IAN Weather Reports


time (UTC)temp
C
wind
direction
speed
KPH
gust
KPH
rain 1hr
cm
rain 24hr
cm
rain mn
cm
humidity
%
barometer
mb
20190819043734 17 360 0.0 0.0 0.00 0.00 0.00 88 1010.4
20190819043228 17 360 0.0 0.0 0.00 0.00 0.00 88 1010.4
20190819042729 17 360 0.0 0.0 0.00 0.00 0.00 88 1010.4
20190819042235 17 360 0.0 0.0 0.00 0.00 0.00 88 1010.4
20190819041730 17 360 0.0 0.0 0.00 0.00 0.00 87 1010.4
20190819041238 18 360 0.0 0.0 0.00 0.00 0.00 87 1010.3
20190819040733 18 360 0.0 0.0 0.00 0.00 0.00 87 1010.3
20190819035728 18 360 0.0 0.0 0.00 0.00 0.00 86 1010.1
20190819035240 18 360 0.0 0.0 0.00 0.00 0.00 86 1010.1
20190819034745 18 360 0.0 0.0 0.00 0.00 0.00 85 1010.1
20190819034234 18 360 0.0 0.0 0.00 0.00 0.00 85 1010.3
20190819033740 18 360 0.0 0.0 0.00 0.00 0.00 85 1010.3
20190819033227 18 360 0.0 0.0 0.00 0.00 0.00 85 1010.3
20190819031730 18 360 0.0 0.0 0.00 0.00 0.00 84 1010.3
20190819030226 18 360 0.0 0.0 0.00 0.00 0.00 84 1010.4
20190819025241 18 360 4.8 0.0 0.00 0.00 0.00 84 1010.3
20190819024727 18 360 4.8 0.0 0.00 0.00 0.00 84 1010.3
20190819024241 18 360 3.2 0.0 0.00 0.00 0.00 84 1010.3
20190819023724 18 360 4.8 0.0 0.00 0.00 0.00 84 1010.3
20190819022737 18 360 3.2 0.0 0.00 0.00 0.00 84 1010.3
20190819022226 18 360 1.6 0.0 0.00 0.00 0.00 84 1010.3
20190819021741 18 360 0.0 0.0 0.00 0.00 0.00 84 1010.3
20190819021228 18 360 0.0 0.0 0.00 0.00 0.00 84 1010.0
20190819020725 18 360 0.0 0.0 0.00 0.00 0.00 83 1010.0
20190819020239 18 360 1.6 0.0 0.00 0.00 0.00 83 1010.0
20190819014736 18 360 0.0 0.0 0.00 0.00 0.00 83 1009.8
20190819014231 19 360 0.0 0.0 0.00 0.00 0.00 83 1009.9
20190819013736 19 360 0.0 0.0 0.00 0.00 0.00 83 1009.9
20190819012725 19 360 0.0 0.0 0.00 0.00 0.00 83 1009.8
20190819012225 19 360 0.0 0.0 0.00 0.00 0.00 83 1009.8
20190819011730 19 360 0.0 0.0 0.00 0.00 0.00 82 1009.8
20190819010732 19 360 0.0 0.0 0.00 0.00 0.00 82 1009.8
20190819010226 19 360 0.0 0.0 0.00 0.00 0.00 82 1009.8
20190819005226 19 360 0.0 0.0 0.00 0.00 0.00 82 1009.8
20190819004733 19 360 0.0 0.0 0.00 0.00 0.00 82 1009.8
20190819004243 19 360 0.0 0.0 0.00 0.00 0.00 82 1009.5
20190819003225 19 360 0.0 0.0 0.00 0.00 0.00 81 1009.5
20190819002729 19 360 0.0 0.0 0.00 0.00 0.00 81 1009.3
20190819002225 19 360 0.0 0.0 0.00 0.00 0.00 81 1009.3
20190819001729 19 360 0.0 0.0 0.00 0.00 0.00 81 1009.3
20190819001238 19 360 0.0 0.0 0.00 0.00 0.00 81 1009.3
20190819000739 19 360 0.0 0.0 0.00 0.00 0.00 81 1009.3
20190818235725 20 360 1.6 0.0 0.00 0.00 0.00 81 1008.8
20190818235239 20 360 0.0 0.0 0.00 0.00 0.00 81 1008.8
20190818234742 20 360 0.0 0.0 0.00 0.00 0.00 80 1008.8
20190818234235 20 360 0.0 0.0 0.00 0.00 0.00 80 1008.7
20190818233234 20 360 0.0 0.0 0.00 0.00 0.00 79 1008.7
20190818232223 20 360 0.0 0.0 0.00 0.00 0.00 78 1008.3
20190818231728 20 360 0.0 0.0 0.00 0.00 0.00 78 1008.3
20190818230738 20 360 0.0 0.0 0.00 0.00 0.00 77 1008.1
20190818230229 20 360 0.0 0.0 0.00 0.00 0.00 76 1008.1
20190818225735 20 188 0.0 0.0 0.00 0.00 0.00 76 1007.9
20190818224730 20 360 0.0 0.0 0.00 0.00 0.00 75 1007.9
20190818224224 20 360 0.0 0.0 0.00 0.00 0.00 74 1008.0
20190818223730 20 360 0.0 0.0 0.00 0.00 0.00 74 1008.0
20190818223244 20 360 0.0 0.0 0.00 0.00 0.00 73 1008.0
20190818222243 21 360 0.0 0.0 0.00 0.00 0.00 73 1007.9
20190818221731 21 360 0.0 0.0 0.00 0.00 0.00 73 1007.9
20190818221223 21 360 0.0 0.0 0.00 0.00 0.00 72 1007.8
20190818220725 21 360 0.0 0.0 0.00 0.00 0.00 72 1007.8
20190818220238 21 360 0.0 0.0 0.00 0.00 0.00 72 1007.8
20190818215234 21 360 0.0 0.0 0.00 0.00 0.03 71 1007.5
20190818214740 21 137 0.0 0.0 0.00 0.00 0.03 71 1007.5
20190818214233 21 127 0.0 0.0 0.00 0.00 0.03 71 1007.6
20190818213233 21 360 0.0 0.0 0.00 0.00 0.03 71 1007.6
20190818212737 21 360 0.0 0.0 0.00 0.00 0.03 71 1007.2
20190818211738 21 360 0.0 0.0 0.00 0.00 0.03 71 1007.2
20190818211237 21 360 1.6 0.0 0.00 0.00 0.03 70 1007.2
20190818210738 21 360 0.0 0.0 0.00 0.00 0.03 71 1007.2
20190818210237 21 360 0.0 0.0 0.00 0.00 0.03 71 1007.2
20190818205740 21 360 1.6 0.0 0.00 0.00 0.03 71 1006.8
20190818204727 21 360 0.0 0.0 0.00 0.00 0.03 70 1006.8
20190818204226 21 360 0.0 0.0 0.00 0.00 0.03 69 1006.9
20190818203728 21 360 0.0 0.0 0.00 0.00 0.03 69 1006.9
20190818203242 21 360 0.0 0.0 0.00 0.00 0.03 69 1006.9
20190818202725 21 360 0.0 0.0 0.00 0.00 0.03 69 1006.7
20190818202240 21 360 0.0 0.0 0.00 0.00 0.03 68 1006.7
20190818201735 21 360 0.0 0.0 0.00 0.00 0.03 68 1006.7
20190818201229 22 360 1.6 0.0 0.00 0.00 0.03 69 1006.4
20190818200734 22 360 1.6 0.0 0.00 0.00 0.03 69 1006.4
20190818200227 22 360 1.6 0.0 0.00 0.00 0.03 69 1006.4
20190818195728 22 360 1.6 0.0 0.00 0.00 0.03 69 1006.0
20190818195241 22 360 1.6 0.0 0.00 0.00 0.03 69 1006.0
20190818194732 22 360 1.6 0.0 0.00 0.00 0.03 69 1006.0
20190818194227 22 360 1.6 0.0 0.00 0.00 0.03 68 1006.0
20190818193730 22 360 0.0 0.0 0.00 0.00 0.03 68 1006.0
20190818193244 22 360 0.0 0.0 0.00 0.00 0.03 68 1006.0
20190818192728 22 360 0.0 0.0 0.00 0.00 0.03 68 1005.1
20190818192243 22 360 0.0 0.0 0.00 0.00 0.03 68 1005.1
20190818191728 22 360 3.2 0.0 0.00 0.00 0.03 67 1005.1
20190818190739 22 360 6.4 0.0 0.00 0.00 0.03 66 1005.1
20190818190232 22 360 6.4 0.0 0.00 0.00 0.03 66 1005.1
20190818185733 22 360 8.0 0.0 0.00 0.00 0.03 65 1005.1
20190818184239 23 360 14.5 0.0 0.00 0.00 0.03 62 1005.1
20190818182724 24 360 8.0 0.0 0.00 0.00 0.03 57 1005.1
20190818181734 25 360 6.4 0.0 0.00 0.00 0.03 54 1005.1
20190818181226 25 360 3.2 0.0 0.00 0.00 0.03 52 1005.0
20190818180732 25 360 6.4 0.0 0.00 0.00 0.03 52 1005.0
20190818175741 26 360 9.7 0.0 0.00 0.00 0.03 51 1004.6
20190818175246 26 360 9.7 0.0 0.00 0.00 0.03 51 1004.6
20190818174726 26 360 11.3 0.0 0.00 0.00 0.03 52 1004.6
20190818174239 27 360 9.7 0.0 0.00 0.00 0.03 53 1004.2
20190818173241 27 360 8.0 0.0 0.00 0.00 0.03 50 1004.2
20190818171733 27 360 1.6 0.0 0.00 0.00 0.03 51 1004.0
20190818170243 28 360 3.2 0.0 0.00 0.00 0.03 49 1004.0
20190818165230 28 360 4.8 0.0 0.00 0.00 0.03 47 1003.9
20190818164229 28 360 3.2 0.0 0.00 0.00 0.03 46 1003.6
20190818162727 28 360 3.2 0.0 0.00 0.00 0.03 44 1003.6
20190818162243 28 360 3.2 0.0 0.00 0.00 0.03 45 1003.6
20190818161239 28 360 3.2 0.0 0.00 0.00 0.03 46 1003.5
20190818160238 28 360 1.6 0.0 0.00 0.00 0.03 45 1003.5
20190818153726 28 360 0.0 0.0 0.00 0.00 0.03 45 1003.1
20190818152727 28 360 0.0 0.0 0.00 0.00 0.03 46 1003.3
20190818152237 28 360 1.6 0.0 0.00 0.00 0.03 45 1003.3
20190818151725 28 360 1.6 0.0 0.00 0.00 0.03 44 1003.3
20190818151240 28 360 1.6 0.0 0.00 0.00 0.03 44 1003.4
20190818150234 28 360 4.8 0.0 0.00 0.00 0.03 43 1003.4
20190818145734 29 360 4.8 0.0 0.00 0.00 0.03 42 1003.0
20190818144737 30 360 3.2 0.0 0.00 0.00 0.03 41 1003.1
20190818144234 30 360 4.8 0.0 0.00 0.00 0.03 40 1003.0
20190818143725 30 360 9.7 0.0 0.00 0.00 0.03 40 1003.0
20190818142230 30 360 9.7 0.0 0.00 0.00 0.03 40 1003.1
20190818141741 30 360 8.0 0.0 0.00 0.00 0.03 40 1003.1
20190818141229 30 360 11.3 0.0 0.00 0.00 0.03 40 1003.2
20190818140731 30 360 12.9 0.0 0.00 0.00 0.03 40 1003.2
20190818140226 30 360 12.9 0.0 0.00 0.00 0.03 39 1003.2
20190818135723 30 360 14.5 0.0 0.00 0.00 0.03 40 1003.0
20190818135239 30 360 12.9 0.0 0.00 0.00 0.03 38 1003.0
20190818134742 30 360 11.3 0.0 0.00 0.00 0.03 37 1003.0
20190818134236 30 360 8.0 0.0 0.00 0.00 0.03 37 1003.0
20190818133738 30 360 6.4 0.0 0.00 0.00 0.03 37 1003.0
20190818133231 30 360 4.8 0.0 0.00 0.00 0.03 37 1003.0
20190818132734 30 360 9.7 0.0 0.00 0.00 0.03 36 1002.9
20190818132223 30 360 9.7 0.0 0.00 0.00 0.03 35 1002.9
20190818131728 31 360 6.4 0.0 0.00 0.00 0.03 36 1003.0
20190818131227 31 360 6.4 0.0 0.00 0.00 0.03 36 1003.5
20190818130733 31 360 6.4 0.0 0.00 0.00 0.03 38 1003.5
20190818130226 30 360 4.8 0.0 0.00 0.00 0.03 37 1003.5
20190818124230 30 360 3.2 0.0 0.00 0.00 0.03 45 1002.9
20190818123735 30 360 3.2 0.0 0.00 0.00 0.03 44 1002.9
20190818123228 30 360 3.2 0.0 0.00 0.00 0.03 45 1002.9
20190818122729 30 117 3.2 0.0 0.00 0.00 0.03 45 1003.1
20190818122223 30 360 3.2 0.0 0.00 0.00 0.03 45 1003.1
20190818121729 29 360 4.8 0.0 0.00 0.00 0.03 46 1003.1
20190818120241 29 360 1.6 0.0 0.00 0.00 0.03 46 1003.3
20190818115724 29 360 3.2 0.0 0.00 0.00 0.03 48 1003.3
20190818114735 29 360 1.6 0.0 0.00 0.00 0.03 47 1003.3
20190818114231 28 360 1.6 0.0 0.00 0.00 0.03 48 1003.3
20190818113234 28 360 1.6 0.0 0.00 0.00 0.03 49 1003.3
20190818112737 28 360 3.2 0.0 0.00 0.00 0.03 48 1003.4
20190818112226 28 127 1.6 0.0 0.00 0.00 0.03 49 1003.4
20190818111244 28 147 1.6 0.0 0.00 0.00 0.03 52 1003.2
20190818105728 28 360 1.6 0.0 0.00 0.00 0.03 53 1003.5
20190818105243 28 360 1.6 0.0 0.00 0.00 0.03 53 1003.5
20190818104728 27 162 1.6 0.0 0.00 0.00 0.03 53 1003.4
20190818104242 27 360 0.0 0.0 0.00 0.00 0.03 54 1003.5
20190818103243 27 360 1.6 0.0 0.00 0.00 0.03 56 1003.5
20190818101742 26 360 1.6 0.0 0.00 0.00 0.03 58 1003.5
20190818101236 26 360 1.6 0.0 0.00 0.00 0.03 58 1003.5
20190818100726 26 360 1.6 0.0 0.00 0.00 0.03 59 1003.5
20190818095737 26 360 1.6 0.0 0.00 0.00 0.03 59 1003.6
20190818095232 26 360 1.6 0.0 0.00 0.00 0.03 60 1003.6
20190818094233 25 360 1.6 0.0 0.00 0.00 0.03 62 1003.5
20190818093237 25 360 1.6 0.0 0.00 0.00 0.03 64 1003.5
20190818092234 25 360 1.6 0.0 0.00 0.00 0.03 63 1003.5
20190818091739 25 360 1.6 0.0 0.00 0.00 0.03 64 1003.5
20190818090728 24 360 1.6 0.0 0.00 0.00 0.03 67 1003.7
20190818090239 24 360 1.6 0.0 0.00 0.00 0.03 65 1003.7
20190818085724 24 360 1.6 0.0 0.00 0.00 0.03 67 1003.6
20190818085239 23 178 0.0 0.0 0.00 0.00 0.03 68 1003.6
20190818084743 23 360 0.0 0.0 0.00 0.00 0.03 69 1003.6
20190818084237 23 360 1.6 0.0 0.00 0.00 0.03 70 1003.7
20190818082730 23 121 0.0 0.0 0.00 0.00 0.03 72 1003.9
20190818081738 22 360 1.6 0.0 0.00 0.00 0.03 73 1003.9
20190818081231 22 360 1.6 0.0 0.00 0.00 0.03 73 1004.0
20190818080736 22 360 0.0 0.0 0.00 0.00 0.03 76 1004.0
20190818080228 22 193 0.0 0.0 0.00 0.00 0.03 78 1004.0
20190818074240 21 134 0.0 0.0 0.00 0.00 0.03 80 1004.0
20190818072735 21 360 0.0 0.0 0.00 0.00 0.03 84 1004.0
20190818072230 21 168 0.0 0.0 0.00 0.00 0.03 85 1004.0
20190818071230 20 191 1.6 0.0 0.00 0.00 0.03 88 1004.2
20190818070736 20 360 0.0 0.0 0.00 0.00 0.03 91 1004.2
20190818070241 20 360 0.0 0.0 0.00 0.00 0.03 93 1004.2
20190818065725 20 360 0.0 0.0 0.00 0.00 0.03 96 1004.3
20190818064737 19 360 0.0 0.0 0.00 0.00 0.03 100 1004.3
20190818064242 19 360 0.0 0.0 0.00 0.00 0.03 100 1004.2
20190818062738 18 360 0.0 0.0 0.00 0.00 0.03 100 1004.4
20190818062231 18 156 0.0 0.0 0.00 0.00 0.03 100 1004.4
20190818061738 18 197 0.0 0.0 0.00 0.00 0.03 100 1004.4
20190818061234 17 360 0.0 0.0 0.00 0.00 0.03 100 1004.5
20190818060239 17 231 0.0 0.0 0.00 0.00 0.03 100 1004.5
20190818055725 17 360 0.0 0.0 0.00 0.00 0.03 100 1004.6
20190818055238 17 360 0.0 0.0 0.00 0.00 0.03 100 1004.6
20190818054742 17 196 0.0 0.0 0.00 0.00 0.03 100 1004.6
20190818053730 16 168 0.0 0.0 0.00 0.00 0.03 100 1004.5
20190818053243 16 360 0.0 0.0 0.00 0.00 0.03 100 1004.5
20190818052743 16 360 0.0 0.0 0.00 0.00 0.03 100 1004.6
20190818052242 16 360 0.0 0.0 0.00 0.00 0.03 100 1004.6
20190818051231 16 360 0.0 0.0 0.00 0.00 0.03 100 1004.5
20190818050736 16 360 0.0 0.0 0.00 0.00 0.03 100 1004.5
20190818050235 16 156 0.0 0.0 0.00 0.00 0.03 100 1004.5
20190818045228 16 172 0.0 0.0 0.00 0.00 0.03 100 1004.6